Flag for Netherlands Weather past 2 weeks in Leerdam, Netherlands

Now
66 °F

Fog.


Feels Like: 66 °F
Forecast: 56 / 72 °F
Wind: 3 mph from North

Location: De Bilt

Current Time: Jul 29, 2014 at 7:23:56 AM

Latest Report: Jul 29, 2014 at 6:00 AM


Visibility: 5 mi

Pressure: 29.88 "Hg

Humidity: 97%

Dew point: 65 °F

Location of LeerdamLocation

Historic Weather in Leerdam — Graph

°F

Leerdam temperature yesterday

Maximum temperature yesterday: 74 °F (at 6:00 PM)
Minimum temperature yesterday: 64 °F (at 8:00 AM)
Average temperature yesterday: 67 °F

Past Weeks' High & Low Weather Summary

 TemperatureHumidityPressure
High90 °F (Jul 19, 3:00 PM)100% (Jul 16, 2:00 AM)30.19 "Hg (Jul 16, 2:00 AM)
Low56 °F (Jul 15, 1:00 AM)31% (Jul 19, 2:00 PM)29.76 "Hg (Jul 20, 6:00 AM)
Average70 °F77%29.99 "Hg
* Reported Jul 14 6:00 AM — Jul 29 6:00 AM, Leerdam, Weather by CustomWeather, © 2014

Note: Actual official high and low records may vary slightly from our data, if they occured in-between our weather recording intervals... More about our weather records

Advertising

Leerdam weather history for previous 24 hours

 ConditionsComfort  
Time TempWeatherWind HumidityBarometerVisibility
6:00 AM
Jul 29
66 °FFog.3 mph97%29.88 "Hg5 mi
5:00 AM65 °FFog.3 mph98%29.88 "Hg3 mi
4:00 AM64 °FFog.3 mph99%29.89 "Hg2 mi
3:00 AM63 °FFog.2 mph99%29.89 "Hg2 mi
2:00 AM64 °FFog.1 mph97%29.89 "Hg5 mi
1:00 AM65 °FPassing clouds.2 mph94%29.90 "Hg9 mi
12:00 AM65 °FOvercast.1 mph96%29.90 "Hg6 mi
11:00 PM
Jul 28
66 °FFog.2 mph95%29.90 "Hg5 mi
10:00 PM68 °FPassing clouds.2 mph92%29.89 "Hg6 mi
9:00 PM70 °FScattered clouds.3 mph85%29.88 "Hg8 mi
8:00 PM72 °FPassing clouds.3 mph79%29.86 "Hg14 mi
7:00 PM73 °FScattered clouds.5 mph73%29.85 "Hg14 mi
6:00 PM74 °FPartly sunny.6 mph74%29.85 "Hg12 mi
5:00 PM72 °FPassing clouds.5 mph81%29.85 "Hg11 mi
4:00 PM71 °FPassing clouds.6 mph81%29.86 "Hg19 mi
3:00 PM69 °FLow clouds.6 mph88%29.88 "Hg10 mi
2:00 PM65 °FLight rain. Overcast.5 mph96%29.88 "Hg7 mi
1:00 PM65 °FRain. Low clouds.2 mph100%29.88 "Hg1 mi
12:00 PM67 °FRain. Low clouds.3 mph95%29.87 "Hg2 mi
11:00 AM67 °FLight rain. Low clouds.6 mph94%29.88 "Hg2 mi
10:00 AM66 °FLight rain. Low clouds.5 mph95%29.89 "Hg3 mi
9:00 AM65 °FLight rain. Low clouds.6 mph95%29.90 "Hg4 mi
8:00 AM64 °FLight rain. Low clouds.5 mph97%29.90 "Hg4 mi
7:00 AM64 °FRain. Overcast.5 mph93%29.91 "Hg4 mi
Weather by CustomWeather, © 2014

See weather overviewHow to use our weather pages